User: anonymous   Login
Location: Unspecified
(0.0000°N, 0.0000°E)
Time: 21:42:17
(UTC+00:00)
Language:

deb r/b Ablestar - Orbit

View from above orbital plane
View from above orbital plane
View from above satellite
View from above satellite

Ground track
Ground track

The orbit data is extracted from the following two-line orbital elements,

1 00335U 61015DM  14294.81785698  .00001875  00000-0  99438-3 0  3223
2 00335 066.8424 184.2342 0035289 073.7005 355.1713 14.15467894724227
Epoch (UTC): 21 October 2014 19:37:42
Eccentricity: 0.0035289
inclination: 66.8424°
perigee height: 815 km
apogee height: 866 km
right ascension of ascending node: 184.2342°
argument of perigee: 73.7005°
revolutions per day: 14.15467894
mean anomaly at epoch: 355.1713°
orbit number at epoch: 72422

The dashed part of the orbit path shows where the satellite is in the earth's shadow,  

DLR